Location: Newark
(23.1300°N, 73.6109°E)
Time: 17:20:31
(UTC+00:00)

NOAA 18 - Pass Details

Date: 04 July 2020
Orbit: 839 x 862 km, 99.0° (Epoch: 05 August)

Event Time Altitude Azimuth Distance (km) Brightness Sun altitude
Exits shadow 15:55:19 57° 115° (ESE) 1,002 5.2 -24.0°
Maximum altitude 15:56:05 64° 75° (ENE) 948 5.2 -24.2°
Drops below altitude 10° 16:01:33 10° 355° (N) 2,493 8.2 -25.1°
Sets 16:03:57 0° 352° (N) 3,429 9.1 -25.5°
